Presure
118 101 108 98 108 110 109 82 116 103 103 106 88 89 109 108 91 83 111 108 107 110 117 101 87 119 108 91 123 106 121 124 130 90 113 105 90 120 99 119 121 112 113
110 107 102 115 111 119 86 111 112 110 108 108 108 105 85 111 105 115 110 115 115 117 106 122 117 101 125 119 131 119 85 110 90 133 130 107 116 87 117 93 89 137 143
96 87 111 110 107 111 115 114 110 106 81 115 105 90 104 109 104 107 111 110 99 119 126 117 91 90 138 102 134 116 122 113 138 98 92 79 135 127 85 134 104 138 134
119 115 115 112 112 121 99 118 123 124 114 120 115 117 108 110 112 113 109 115 110 124 115 123 132 133 121 126 132 147 142 140 147 84 107 137 144 111 143 122 149 141 164
105 102 89 113 126 105 143 111 107 106 142 135 119 123 108 126 106 100 123 110 126 130 114 132 132 137 129 141 130 149 92 144 108 152 129 155 138 109 155 99 91 173 157
88 92 86 125 125 100 261 263 286 129 161 158 137 114 122 123 102 131 136 140 145 76 134 148 154 143 139 107 159 148 151 162 164 92 154 224 171 171 179 159 114 229 240
206 134 157 149 146 125 170 192 122 129 178 259 253 298 127 118 143 153 143 114 144 204 145 179 219 188 162 124 157 125 125 97 180 250 90 172 252 160 227 217 155 219 218
190 238 125 168 135 170 123 192 162 249 126 118 125 132 123 115 131 139 204 197 197 210 204 224 254 243 220 146 153 204 217 235 189 226 238 218 101 142 179 140 206 175 201
148 196 215 248 219 247 231 216 236 214 204 192 165 118 201 211 180 222 207 221 127 217 253 237 234 150 253 250 242 211 195 152 204 210 193 154 219 188 195 143 196 208 182
227 223 217 208 245 233 236 172 229 128 213 156 191 191 191 191 97 217 211 225 219 213 207 218 220 127 169 91 251 223 250 200 178 137 220 193 226 193 130 200 207 190 195
207 229 229 226 238 237 230 278 232 199 221 192 212 190 199 199 155 107 208 183 200 214 124 158 122 206 173 208 211 208 183 219 231 236 199 219 210 186 204 202 188 191 179
206 219 198 226 220 231 230 279 251 185 184 210 214 201 212 212 179 188 202 194 211 128 209 157 193 198 206 153 198 185 204 206 225 204 224 198 204 199 193 187 185 181 184
206 218 226 227 226 227 239 248 290 217 224 222 208 217 215 202 124 180 199 149 78 197 214 203 192 203 187 193 189 185 179 175 208 206 212 179 202 186 188 193 178 182 175
191 207 223 229 230 207 216 287 238 219 231 213 229 213 208 208 203 203 194 189 79 201 186 137 203 190 196 191 198 218 177 226 221 217 192 192 195 176 172 183 174 173 176
214 219 225 230 224 218 209 278 254 277 228 223 212 212 207 198 223 188 216 159 194 209 216 204 200 194 203 177 171 191 204 214 226 200 205 191 194 180 182 173 171 175 172
207 213 216 209 231 211 234 269 253 254 248 218 205 201 203 197 210 189 202 222 201 208 189 203 193 205 211 202 191 194 191 211 205 210 202 197 185 174 179 174 173 174 174
216 212 206 223 228 205 227 272 246 254 234 220 220 218 205 212 204 200 201 217 208 202 213 200 200 193 177 177 173 182 178 186 212 208 199 191 189 188 176 172 170 173 171
210 211 204 218 217 202 226 273 244 249 227 237 230 208 204 202 184 211 213 188 196 194 201 178 175 205 207 197 175 160 177 225 219 203 184 184 183 169 169 174 174 181 172
202 205 208 203 220 207 229 296 245 223 211 236 199 209 198 182 189 187 198 196 194 196 188 198 186 197 217 187 178 183 183 177 178 210 197 182 169 183 180 169 171 161 174
201 204 201 205 228 226 203 312 241 220 205 217 204 214 202 187 188 201 190 193 188 182 181 200 191 166 188 183 170 168 185 192 181 203 200 188 184 181 177 176 173 168 164
206 206 200 197 219 215 189 217 250 240 214 189 212 184 191 195 185 190 187 182 204 183 187 172 196 177 159 174 172 174 184 182 215 205 195 180 184 173 170 175 173 174 155
203 209 202 194 229 211 183 253 230 242 212 191 208 214 201 191 183 189 196 192 193 197 193 176 172 177 164 188 181 177 180 211 212 197 188 193 177 189 188 186 176 180 177
208 200 201 190 234 208 222 244 257 242 213 200 191 204 218 202 198 184 185 199 200 191 197 181 173 184 174 183 177 175 188 217 195 201 194 186 161 168 173 179 170 170 157
200 212 204 196 211 237 210 239 244 218 213 206 193 188 195 201 190 178 179 181 184 181 188 179 171 178 179 180 188 181 186 209 186 193 192 183 197 177 185 164 161 162 161
197 199 203 193 202 213 182 213 223 230 206 194 225 197 188 180 176 190 193 182 180 183 179 173 178 168 174 171 181 190 205 179 174 188 194 205 169 178 166 164 170 172 165
190 196 197 193 190 202 214 212 215 220 207 204 193 218 242 228 193 192 193 196 193 190 193 194 189 177 172 183 223 205 197 190 171 178 185 184 171 168 165 187 181 176 172
Wind_Speed
54 39 44 39 40 41 42 30 46 44 44 47 44 38 55 53 33 24 50 46 40 46 55 29 31 54 40 30 63 44 57 63 69 33 51 46 37 59 46 55 56 52 54
50 45 39 49 45 54 38 44 45 47 50 51 54 55 38 57 51 59 50 54 52 53 32 60 54 36 63 59 69 59 29 50 35 74 71 46 58 35 55 44 27 77 81
39 32 46 44 41 47 50 48 47 47 36 55 51 42 55 60 47 45 52 33 32 57 64 54 42 43 75 45 73 56 62 56 80 43 40 23 77 68 29 76 49 83 74
63 54 53 48 46 56 44 53 58 60 55 60 59 60 58 62 65 65 45 53 43 64 52 66 71 72 59 69 73 86 83 80 86 35 51 78 84 55 83 68 86 80 94
40 44 34 50 63 44 70 49 53 56 71 68 60 64 58 72 49 41 74 56 70 73 52 72 75 76 72 82 72 86 45 83 52 90 73 90 75 59 90 54 34 94 85
41 50 43 64 64 50 51 51 45 67 67 78 69 64 70 72 36 79 80 80 83 27 76 84 90 83 78 49 92 83 86 95 98 42 86 75 96 94 94 91 51 39 26
56 70 60 55 69 50 60 60 66 68 51 16 25 24 57 62 80 88 82 53 80 66 79 74 47 77 82 26 57 61 54 49 80 39 42 71 22 55 36 58 65 38 30
58 47 60 57 66 47 60 46 78 20 69 58 67 72 67 58 69 79 49 45 54 51 57 59 36 45 67 44 45 56 53 52 57 35 40 49 49 78 59 74 46 60 47
73 45 54 41 39 32 33 35 33 44 57 38 43 63 49 57 40 32 44 39 71 29 19 32 29 63 32 35 37 57 64 65 42 55 52 76 38 67 47 75 56 30 59
42 44 48 42 34 29 33 54 43 73 56 62 52 66 73 75 33 40 53 41 42 53 63 37 34 70 56 35 29 42 35 63 76 47 41 59 30 54 37 46 28 48 36
44 41 42 38 30 26 35 29 47 56 54 65 58 69 58 72 62 46 66 58 36 40 28 63 31 48 35 37 29 28 37 37 30 31 33 31 35 25 35 34 41 36 51
42 42 50 36 32 29 32 34 41 63 56 64 70 74 63 70 52 80 56 55 55 65 44 45 60 55 42 46 43 53 27 32 31 39 28 39 27 30 32 36 40 41 41
40 40 36 35 31 29 31 33 31 59 66 67 67 73 68 74 49 74 69 51 24 58 37 44 51 40 57 46 44 44 47 53 35 32 31 49 28 42 37 31 44 41 47
50 40 36 33 32 35 30 26 39 56 69 66 77 69 76 75 74 72 66 57 23 60 52 46 47 52 48 45 36 37 46 35 32 30 38 34 33 43 50 30 45 44 46
36 33 34 31 29 27 32 28 33 31 73 70 62 66 70 68 69 61 66 49 57 52 33 49 48 48 41 39 45 31 37 29 29 35 32 34 29 37 32 39 47 47 49
34 31 31 29 30 28 31 29 29 32 59 72 63 67 71 62 71 60 72 63 56 57 44 43 46 44 37 34 32 30 33 27 33 37 34 34 43 40 35 40 46 48 48
28 27 27 29 25 26 27 27 29 23 53 59 70 72 71 71 64 61 62 62 56 52 45 42 43 42 44 41 46 31 37 31 31 35 35 33 36 36 39 44 49 49 50
26 25 26 25 24 25 24 24 31 23 47 35 58 55 62 67 48 62 54 46 48 45 44 36 37 42 34 35 45 48 37 32 35 38 37 37 34 44 47 42 51 49 52
24 25 25 24 24 23 22 20 31 37 38 33 41 62 62 52 54 55 57 55 53 51 35 49 45 51 38 35 39 40 39 38 37 41 42 41 46 39 47 52 50 59 54
23 24 25 22 26 20 22 13 29 39 39 38 40 64 67 60 61 71 55 50 52 30 34 48 35 40 40 40 43 43 46 45 43 47 44 42 39 43 49 52 51 58 59
21 24 24 22 21 18 25 20 25 34 42 41 45 44 54 63 57 60 56 47 65 39 39 38 53 34 41 40 45 49 51 49 46 49 53 45 43 51 54 57 58 61 64
18 20 21 20 17 16 29 12 24 32 42 44 43 46 66 63 55 58 58 65 65 68 55 43 42 43 41 60 55 47 53 46 45 46 48 54 39 49 61 62 54 60 62
18 19 16 21 12 14 10 9 14 28 41 46 43 48 51 65 69 58 59 72 76 60 66 42 38 50 43 59 50 48 56 50 43 50 46 34 44 51 52 51 57 56 61
16 13 13 17 11 11 7 8 11 29 40 46 47 47 53 60 58 45 49 54 66 56 65 44 39 55 57 59 68 64 64 51 39 42 49 41 55 55 56 59 60 64 67
16 12 11 17 11 8 24 3 10 20 32 34 29 51 51 42 41 60 68 56 57 62 52 40 56 41 51 50 69 67 53 51 46 44 54 63 54 54 59 62 62 67 66
18 14 14 19 20 8 3 5 5 14 24 35 38 28 24 43 63 66 67 70 74 71 72 73 63 47 47 68 47 51 50 49 53 49 51 54 59 58 59 59 64 69 71
Wind_Direction
258 258 264 266 268 268 267 280 266 273 274 275 263 277 279 280 261 276 275 277 279 280 278 270 259 282 277 263 284 277 284 288 285 281 281 272 276 286 279 283 285 272 290
261 262 262 265 267 264 267 270 266 268 270 272 274 279 280 279 280 276 279 277 279 277 275 275 283 274 278 284 279 283 289 280 262 284 285 282 283 292 284 276 305 286 286
261 275 266 266 265 269 267 270 269 266 275 267 271 272 277 277 281 284 284 286 250 279 277 287 245 269 274 265 278 282 280 279 280 286 273 295 282 278 301 285 293 285 283
261 263 266 267 269 268 260 267 265 264 266 262 266 267 272 274 277 282 288 287 280 282 284 284 274 276 279 282 280 277 278 278 279 286 282 279 280 282 282 282 282 276 278
261 269 276 270 265 261 262 267 266 265 261 260 263 262 270 266 275 279 272 283 274 275 279 275 276 276 279 274 277 275 266 276 276 276 276 279 281 284 278 275 286 276 278
277 260 278 263 265 262 275 272 273 262 262 262 259 266 264 265 274 264 264 266 268 259 274 271 266 273 274 264 271 276 275 273 273 271 277 271 274 275 275 277 282 271 279
270 258 262 265 261 264 264 264 260 260 262 289 289 308 268 269 262 262 265 280 264 259 269 267 266 266 269 271 277 279 265 269 271 269 282 275 261 274 260 271 277 273 267
269 277 262 264 259 270 260 261 264 235 259 266 260 259 263 272 266 261 249 247 259 260 260 257 257 259 260 270 265 262 262 258 272 267 266 269 281 274 271 277 267 275 271
262 275 271 278 277 274 256 250 212 235 249 251 274 266 257 254 252 265 248 241 275 260 216 239 249 267 250 254 256 263 266 271 263 267 268 272 259 271 263 277 273 256 277
272 272 271 277 279 255 255 247 217 259 233 260 249 252 256 255 269 232 242 240 236 248 255 243 243 276 269 284 253 266 254 267 268 270 262 269 241 265 278 267 256 272 273
266 270 272 271 275 266 248 246 213 232 216 243 224 251 238 252 263 267 254 261 241 244 263 264 261 257 268 268 267 266 267 267 256 249 252 238 247 254 254 260 268 266 277
263 268 267 269 266 273 252 254 229 239 227 230 224 243 230 236 247 263 243 254 248 272 241 255 259 264 266 270 271 268 270 278 247 269 225 254 237 246 255 261 268 269 275
262 267 272 274 269 264 274 251 249 226 218 224 245 230 228 242 258 257 260 252 257 256 239 244 256 259 266 264 267 267 267 266 280 265 224 266 239 253 248 258 266 268 271
267 266 272 275 275 261 244 264 233 224 212 235 216 230 231 235 239 249 260 267 249 259 260 269 245 260 263 268 270 288 264 264 235 221 253 246 225 258 261 260 266 270 271
265 271 278 279 270 262 244 263 232 242 216 221 232 227 234 245 226 259 240 261 264 254 253 253 254 262 258 265 265 283 279 272 233 240 233 246 247 255 250 255 265 267 269
261 266 277 266 280 255 274 260 243 229 219 221 230 235 235 248 241 252 251 240 255 254 272 263 273 276 272 274 267 286 267 276 253 235 244 231 238 256 249 258 263 267 270
260 265 269 280 282 252 270 262 241 240 213 218 220 226 234 235 244 251 255 238 251 261 262 263 265 273 260 255 255 284 275 287 251 231 241 243 233 241 253 254 264 269 268
257 268 266 275 274 247 269 263 236 232 218 232 222 228 235 239 243 236 238 259 262 261 261 245 241 274 275 282 261 268 279 246 242 249 260 246 240 257 258 253 264 268 267
259 267 276 264 289 254 271 265 232 216 223 234 220 221 231 247 247 253 252 251 255 258 255 262 260 274 272 280 271 288 291 285 285 252 245 247 261 259 253 257 260 267 268
254 262 265 270 290 277 255 261 233 215 217 230 228 222 224 237 244 245 251 250 251 252 253 261 260 262 277 274 272 276 292 293 288 259 246 261 255 261 257 257 259 263 265
252 267 259 259 292 271 241 241 231 219 220 236 227 237 233 234 245 249 251 254 250 251 265 254 267 263 262 274 277 280 294 286 256 250 248 256 246 262 268 258 257 259 274
257 266 261 255 296 264 240 268 227 225 218 230 232 231 224 231 244 246 248 256 259 259 259 249 257 262 256 281 283 285 289 269 257 258 259 250 275 259 256 258 263 263 267
252 251 262 250 321 257 325 309 249 223 215 222 236 234 234 229 235 245 252 250 252 261 261 258 256 275 266 280 284 285 286 257 275 255 252 271 262 277 263 275 273 262 276
239 256 255 253 292 338 281 343 232 219 222 223 230 238 242 237 239 253 255 258 260 262 264 262 263 274 273 277 282 282 289 264 266 267 272 266 279 270 268 260 267 268 275
237 230 249 236 266 301 237 261 225 215 226 230 233 233 240 249 256 249 249 254 257 260 263 259 268 259 272 271 280 277 268 264 264 269 269 262 255 262 259 267 266 268 276
237 226 240 231 236 270 319 232 181 213 214 222 235 243 249 244 246 249 252 253 253 259 263 264 267 269 268 277 251 255 258 262 265 262 265 264 264 266 269 270 265 266 272